South Bend, IN

11:26 PM EST on February 11, 2016 (GMT -0500)
South Bend Regional

Weather History for KSBN - February, 2011

Change the Weather History Date:

Monday, February 7, 2011

  Actual Average Record
Temperature  
Mean Temperature 27 °F 26 °F  
Max Temperature 31 °F 33 °F 63 °F (1925)
Min Temperature 22 °F 19 °F -14 °F (1978)
Degree Days  
Heating Degree Days 38 39  
Month to date heating degree days 319 278  
Since 1 July heating degree days 4070 3926  
Cooling Degree Days 0 0  
Month to date cooling degree days 0 0  
Year to date cooling degree days 0 0  
Moisture  
Dew Point 24 °F    
Average Humidity 75    
Maximum Humidity 92    
Minimum Humidity 58    
Precipitation  
Precipitation 0.01 in 0.06 in 0.90 in (1933)
Month to date precipitation 1.14 0.43  
Year to date precipitation 3.30 2.72  
Snow  
Snow 0.40 in 0.60 in 10.00 in (1914)
Month to date snowfall 15.5 4.4  
Since 1 July snowfall 94.2 47.5  
Snow Depth 10.00 in    
Sea Level Pressure  
Sea Level Pressure 29.96 in    
Wind  
Wind Speed 7 mph (NW)    
Max Wind Speed 16 mph    
Max Gust Speed 20 mph    
Visibility 6 miles    
Events Snow    
T = Trace of Precipitation, MM = Missing Value Source: NWS Daily Summary

Daily Weather History Graph

Daily Weather History Graph

Search for Another Location

Airport or City:

Trip Planner

Search our weather history database for the weather conditions in past years. The results will help you decide how hot, cold, wet, or windy it might be!

Date:

Astronomy

Feb. 07, 2011 Rise Set
Actual Time 7:51 AM EST 6:08 PM EST
Civil Twilight 7:22 AM EST 6:37 PM EST
Nautical Twilight 6:49 AM EST 7:10 PM EST
Astronomical Twilight 6:16 AM EST 7:42 PM EST
Moon 9:28 AM EST (2/7) 10:55 PM EST (2/7)
Length of Visible Light 11h 15m
Length of Day
10h 17m
Waxing Crescent, 18% of the Moon is Illuminated
Feb 7
Waxing Crescent
Feb 11
First Quarter
Feb 18
Full
Feb 24
Last Quarter
Mar 4
New

Hourly Weather History & Observations

Time (EST) Temp. Windchill Dew Point Humidity Pressure Visibility Wind Dir Wind Speed Gust Speed Precip Events Conditions
12:03 AM 30.2 °F 22.6 °F 28.4 °F 93% 29.93 in 4.0 mi West 8.1 mph - N/A   Overcast
12:12 AM 30.2 °F 22.6 °F 28.4 °F 93% 29.93 in 5.0 mi WNW 8.1 mph - N/A   Overcast
12:37 AM 30.2 °F 24.3 °F 28.4 °F 93% 29.93 in 4.0 mi West 5.8 mph - N/A   Overcast
12:54 AM 30.0 °F 26.5 °F 28.0 °F 92% 29.96 in 5.0 mi West 3.5 mph - N/A   Overcast
1:33 AM 30.2 °F 24.3 °F 28.4 °F 93% 29.93 in 2.0 mi West 5.8 mph - 0.00 in Snow Light Snow
1:45 AM 30.2 °F 24.3 °F 28.4 °F 93% 29.93 in 1.2 mi West 5.8 mph - 0.00 in Snow Light Snow
1:54 AM 30.0 °F 25.2 °F 28.9 °F 96% 29.96 in 2.0 mi West 4.6 mph - 0.00 in Snow Light Snow
2:31 AM 30.2 °F 25.4 °F 28.4 °F 93% 29.92 in 2.5 mi West 4.6 mph - 0.00 in Snow Light Snow
2:54 AM 30.0 °F 26.5 °F 28.0 °F 92% 29.96 in 2.5 mi West 3.5 mph - 0.00 in Snow Light Snow
3:04 AM 30.2 °F 25.4 °F 28.4 °F 93% 29.93 in 2.5 mi West 4.6 mph - 0.00 in Snow Light Snow
3:54 AM 28.9 °F 25.2 °F 28.0 °F 96% 29.95 in 3.0 mi West 3.5 mph - 0.00 in   Overcast
4:18 AM 28.4 °F 23.3 °F 28.4 °F 100% 29.92 in 4.0 mi West 4.6 mph - 0.00 in Snow Light Snow
4:49 AM 28.4 °F 22.2 °F 28.4 °F 100% 29.93 in 6.0 mi NW 5.8 mph - 0.00 in   Overcast
4:54 AM 30.0 °F 24.1 °F 28.0 °F 92% 29.96 in 7.0 mi WNW 5.8 mph - 0.00 in   Overcast
5:54 AM 30.0 °F 22.4 °F 27.0 °F 88% 29.96 in 10.0 mi NW 8.1 mph - N/A   Overcast
6:54 AM 30.0 °F 23.2 °F 27.0 °F 88% 29.97 in 9.0 mi NW 6.9 mph - 0.00 in Snow Light Snow
7:54 AM 30.0 °F 24.1 °F 26.1 °F 85% 29.98 in 9.0 mi NW 5.8 mph - 0.00 in Snow Light Snow
8:25 AM 28.4 °F 21.2 °F 26.6 °F 93% 29.95 in 8.0 mi NNW 6.9 mph - 0.00 in Snow Light Snow
8:54 AM 28.9 °F 20.4 °F 26.1 °F 89% 29.99 in 9.0 mi North 9.2 mph - 0.00 in Snow Light Snow
9:34 AM 28.4 °F 18.0 °F 24.8 °F 86% 29.96 in 9.0 mi North 12.7 mph - 0.00 in Snow Light Snow
9:54 AM 28.9 °F 19.8 °F 23.0 °F 78% 29.99 in 9.0 mi North 10.4 mph - 0.00 in Snow Light Snow
10:54 AM 30.0 °F 21.1 °F 23.0 °F 75% 29.99 in 10.0 mi North 10.4 mph - 0.00 in   Overcast
11:54 AM 30.0 °F 21.7 °F 19.9 °F 66% 29.99 in 10.0 mi NNW 9.2 mph - N/A   Overcast
12:54 PM 30.9 °F 20.2 °F 19.0 °F 61% 29.96 in 10.0 mi North 15.0 mph - N/A   Mostly Cloudy
1:54 PM 30.9 °F 22.2 °F 19.0 °F 61% 29.94 in 10.0 mi NNW 10.4 mph - N/A   Overcast
2:54 PM 30.0 °F 21.7 °F 18.0 °F 61% 29.93 in 10.0 mi North 9.2 mph - N/A   Overcast
3:54 PM 30.0 °F 23.2 °F 18.0 °F 61% 29.93 in 10.0 mi NNW 6.9 mph - N/A   Overcast
4:54 PM 28.9 °F 20.4 °F 17.1 °F 61% 29.95 in 9.0 mi NNW 9.2 mph - 0.00 in   Overcast
5:54 PM 28.0 °F 19.3 °F 18.0 °F 66% 29.97 in 10.0 mi NW 9.2 mph - 0.00 in   Overcast
6:24 PM 26.6 °F 19.1 °F 21.2 °F 80% 29.94 in 2.0 mi NW 6.9 mph - 0.00 in Snow Light Snow
6:54 PM 26.1 °F 19.4 °F 21.9 °F 84% 29.98 in 7.0 mi NNW 5.8 mph - 0.00 in Snow Light Snow
7:54 PM 25.0 °F 16.3 °F 19.9 °F 81% 29.99 in 10.0 mi North 8.1 mph - 0.00 in   Overcast
8:54 PM 25.0 °F 17.1 °F 19.9 °F 81% 30.01 in 10.0 mi NNW 6.9 mph - N/A   Overcast
9:54 PM 24.1 °F 17.0 °F 19.9 °F 84% 30.01 in 7.0 mi NNW 5.8 mph - 0.00 in Snow Light Snow
10:41 PM 23.0 °F 17.0 °F 19.4 °F 86% 29.99 in 3.0 mi NW 4.6 mph - 0.00 in Snow Light Snow
10:54 PM 23.0 °F 15.8 °F 19.9 °F 88% 30.03 in 2.0 mi NW 5.8 mph - 0.00 in Snow Light Snow
11:14 PM 23.0 °F 18.4 °F 19.4 °F 86% 30.00 in 1.8 mi NW 3.5 mph - 0.01 in Snow Light Snow
11:41 PM 23.0 °F - 21.2 °F 93% 30.00 in 1.5 mi Calm Calm - 0.01 in Snow Light Snow
11:54 PM 23.0 °F - 19.9 °F 88% 30.03 in 1.5 mi Calm Calm - 0.01 in Snow Light Snow